Location: Beneden-Haastrecht
(52.0012°N, 4.7557°E)
Time: 10:49:28
(UTC+00:00)

Cosmos 2219 - Pass Details

Date: 24 October 2020
Orbit: 832 x 862 km, 71.1° (Epoch: 24 November)

Event Time Altitude Azimuth Distance (km) Brightness Sun altitude
Rises 17:25:51 0° 330° (NNW) 3,443 6.7 -9.6°
Reaches altitude 10° 17:28:23 10° 335° (NNW) 2,507 5.9 -10.0°
Maximum altitude 17:34:02 53° 52° (NE) 1,049 3.4 -10.9°
Drops below altitude 10° 17:39:39 10° 130° (SE) 2,499 5.2 -11.7°
Enters shadow 17:41:25 - 133° (SE) 3,148 5.8 -12.0°
